This demonstration page uses our WeatherBlox Daily Observations layout. Learn more.

Left ArrowRight Arrow

Hourly Observations for August 4, 2015

Temp ( °F °C ) Dew Point ( °F °C ) Humidity (%) Winds ( mph kmh ) Pressure ( in mb ) Visibility ( mi km ) Precip ( " mm )
12:53 am 00:53 Cloudy with Mist and Fog 69 20.6 68 20 96 96 N N/A 29.92 1013 6 10 N/A
1:53 am 01:53 Mostly Cloudy 69 20.6 68 20 96 96 N 7 11 29.93 1014 9 14 N/A
2:53 am 02:53 Mostly Clear 67 19.4 66 18.9 97 97 N N/A 29.93 1014 9 14 N/A
3:53 am 03:53 Mostly Clear with Mist and Fog 65 18.3 64 17.8 97 97 N N/A 29.93 1014 4 6 N/A
4:53 am 04:53 Mostly Clear with Mist and Fog 63 17.2 62 16.7 97 97 N N/A 29.93 1014 4 6 N/A
5:53 am 05:53 Clear with Mist and Fog 62 16.7 61 16.1 96 96 N N/A 29.95 1014 3 5 N/A
5:57 am 05:57 Clear with Mist and Fog 62 16.7 61 16.1 96 96 N N/A 29.97 1015 2 3 N/A
6:02 am 06:02 Clear with Mist and Fog 62 16.7 61 16.1 96 96 N N/A 29.97 1015 1 1 N/A
6:11 am 06:11 Clear with Mist and Fog 62 16.7 61 16.1 96 96 N N/A 29.97 1015 2 3 N/A
6:14 am 06:14 Clear with Mist and Fog 61 16.1 61 16.1 100 100 N N/A 29.97 1015 3 5 N/A
6:16 am 06:16 Clear with Mist and Fog 61 16.1 61 16.1 100 100 N N/A 29.97 1015 2 2 N/A
6:27 am 06:27 Clear with Mist and Fog 61 16.1 60 15.6 97 97 N N/A 29.97 1015 2 3 N/A
6:32 am 06:32 Clear with Mist and Fog 61 16.1 60 15.6 97 97 N N/A 29.97 1015 1 2 N/A
6:40 am 06:40 Clear with Fog 61 16.1 60 15.6 97 97 N N/A 29.97 1015 0 0 N/A
6:53 am 06:53 Mostly Cloudy with Fog 61 16.1 60 15.6 97 97 N N/A 29.96 1015 1 1 N/A
7:14 am 07:14 Partly Cloudy with Mist and Fog 61 16.1 61 16.1 100 100 N N/A 29.97 1015 1 2 N/A
7:27 am 07:27 Partly Cloudy with Mist and Fog 62 16.7 61 16.1 96 96 N N/A 30.00 1016 5 8 N/A
7:44 am 07:44 Sunny with Mist and Fog 64 17.8 63 17.2 96 96 N N/A 30.00 1016 3 4 N/A
7:51 am 07:51 Sunny with Mist and Fog 64 18 63 17 94 94 N N/A 30.00 1016 6 10 N/A
7:53 am 07:53 Sunny with Mist and Fog 64 17.8 63 17.2 96 96 N N/A 29.98 1015 6 10 N/A
8:53 am 08:53 Sunny 71 21.7 65 18.3 81 81 N N/A 29.98 1015 10 16 N/A
9:53 am 09:53 Sunny 76 24.4 65 18.3 69 69 N N/A 29.97 1015 10 16 N/A
10:53 am 10:53 Sunny 79 26.1 65 18.3 62 62 VRB 3 6 29.99 1016 10 16 N/A
11:53 am 11:53 Sunny 80 26.7 67 19.4 64 64 VRB 5 7 29.99 1016 10 16 N/A
12:53 pm 12:53 Partly Cloudy 82 27.8 66 18.9 58 58 VRB 6 9 29.98 1015 10 16 N/A
1:53 pm 13:53 Sunny 83 28.3 60 15.6 46 46 W 8 13 29.98 1015 10 16 N/A
2:53 pm 14:53 Sunny 83 28.3 58 14.4 43 43 VRB 3 6 29.97 1015 10 16 N/A
3:53 pm 15:53 Sunny 84 28.9 59 15 43 43 VRB 7 11 29.97 1015 10 16 N/A
4:53 pm 16:53 Sunny 82 27.8 59 15 46 46 W 7 11 29.97 1015 10 16 N/A
5:53 pm 17:53 Sunny 80 26.7 60 15.6 51 51 VRB 5 7 29.97 1015 10 16 N/A
6:53 pm 18:53 Sunny 79 26.1 60 15.6 52 52 W 5 7 29.97 1015 10 16 N/A
7:53 pm 19:53 Sunny 75 23.9 66 18.9 74 74 N N/A 29.97 1015 10 16 N/A
8:53 pm 20:53 Clear 69 20.6 66 18.9 90 90 N N/A 29.98 1015 10 16 N/A
9:53 pm 21:53 Mostly Clear 68 20 65 18.3 90 90 N N/A 30.01 1016 10 16 N/A
10:53 pm 22:53 Partly Cloudy 71 21.7 67 19.4 87 87 N N/A 30.03 1017 10 16 N/A
11:53 pm 23:53 Clear 67 19.4 66 18.9 97 97 N N/A 30.01 1016 10 16 N/A

Powered by AerisWeather